FW3619 Weather Reports


Display with metric or nautical units.
time (UTC)temp
F
wind
direction
speed
MPH
gust
MPH
rain 1hr
in
rain 24hr
in
rain mn
in
humidity
%
barometer
mb
20260510182503 70 96 2.0 5.0 0.00 0.00 0.00 74 1014.8
20260510181957 71 107 2.0 3.0 0.00 0.00 0.00 70 1014.7
20260510181456 71 148 3.0 3.0 0.00 0.00 0.00 70 1014.8
20260510180951 70 125 2.0 7.0 0.00 0.00 0.00 71 1014.9
20260510180449 68 200 3.0 5.0 0.00 0.00 0.00 72 1015.0
20260510175946 66 133 2.0 5.0 0.00 0.00 0.00 77 1014.9
20260510175441 68 104 3.0 9.0 0.00 0.00 0.00 75 1015.0
20260510174937 69 163 5.0 9.0 0.00 0.00 0.00 73 1014.7
20260510174436 69 128 0.0 3.0 0.00 0.00 0.00 76 1014.6
20260510173932 69 200 3.0 5.0 0.00 0.00 0.00 74 1014.8
20260510173428 71 122 2.0 5.0 0.00 0.00 0.00 74 1014.9
20260510172924 69 116 2.0 3.0 0.00 0.00 0.00 73 1014.9
20260510172420 68 141 2.0 3.0 0.00 0.00 0.00 75 1014.9
20260510171916 68 127 0.0 3.0 0.00 0.00 0.00 77 1015.0
20260510171414 68 119 2.0 10.0 0.00 0.00 0.00 76 1015.2
20260510170910 68 87 0.0 10.0 0.00 0.00 0.00 79 1015.1
20260510170407 68 112 0.0 10.0 0.00 0.00 0.00 76 1015.3
20260510165902 69 114 0.0 3.0 0.00 0.00 0.00 74 1015.4
20260510165359 68 119 2.0 5.0 0.00 0.00 0.00 75 1015.4
20260510164856 67 107 0.0 3.0 0.00 0.00 0.00 77 1015.3
20260510164353 67 188 2.0 7.0 0.00 0.00 0.00 76 1015.5
20260510163853 68 126 3.0 5.0 0.00 0.00 0.00 76 1015.6
20260510163349 67 132 5.0 7.0 0.00 0.00 0.00 77 1015.6
20260510162844 68 183 1.0 10.0 0.00 0.00 0.00 77 1015.7
20260510162341 67 113 1.0 5.0 0.00 0.00 0.00 76 1015.8
20260510161836 67 173 2.0 7.0 0.00 0.00 0.00 77 1015.8
20260510161333 66 146 5.0 9.0 0.00 0.00 0.00 78 1015.8
20260510160830 65 83 0.0 5.0 0.00 0.00 0.00 80 1016.0
20260510160327 66 128 1.0 10.0 0.00 0.00 0.00 81 1015.9
20260510155821 65 156 3.0 7.0 0.00 0.00 0.00 79 1015.7
20260510155318 65 126 2.0 9.0 0.00 0.00 0.00 80 1016.1
20260510154814 65 261 3.0 9.0 0.00 0.00 0.00 81 1016.1
20260510154310 65 106 3.0 7.0 0.00 0.00 0.00 81 1015.8
20260510153804 63 101 0.0 7.0 0.00 0.00 0.00 84 1016.3
20260510153300 63 119 3.0 7.0 0.00 0.00 0.00 82 1016.1
20260510152757 63 154 3.0 7.0 0.00 0.00 0.00 84 1016.0
20260510152254 62 111 2.0 3.0 0.00 0.00 0.00 84 1016.6
20260510151750 61 102 0.0 7.0 0.00 0.00 0.00 88 1016.5
20260510151249 60 106 1.0 3.0 0.00 0.00 0.00 88 1016.3
20260510150744 61 217 5.0 7.0 0.00 0.00 0.00 87 1016.3
20260510150240 59 116 1.0 2.0 0.00 0.00 0.00 90 1016.3
20260510145736 59 97 1.0 5.0 0.00 0.00 0.00 91 1016.3
20260510145233 59 165 0.0 7.0 0.00 0.00 0.00 91 1016.3
20260510144728 58 104 0.0 5.0 0.00 0.00 0.00 92 1016.2
20260510144226 59 115 0.0 7.0 0.00 0.00 0.00 91 1016.3
20260510143720 59 133 2.0 5.0 0.00 0.00 0.00 92 1016.5
20260510143217 57 110 0.0 5.0 0.00 0.00 0.00 94 1016.4
20260510142713 58 111 2.0 3.0 0.00 0.00 0.00 93 1016.2
20260510142210 58 135 3.0 5.0 0.00 0.00 0.00 93 1016.4
20260510141702 57 180 5.0 5.0 0.00 0.00 0.00 93 1016.2
20260510141200 55 119 1.0 2.0 0.00 0.00 0.00 96 1016.2
20260510140656 56 214 3.0 3.0 0.00 0.00 0.00 97 1016.3
20260510140156 56 101 0.0 5.0 0.00 0.00 0.00 98 1016.4
20260510135651 54 101 1.0 5.0 0.00 0.00 0.00 99 1016.3
20260510135147 54 194 4.0 5.0 0.00 0.00 0.00 99 1016.3
20260510134644 55 217 1.0 5.0 0.00 0.00 0.00 99 1016.5
20260510134142 55 107 1.0 5.0 0.00 0.00 0.00 99 1016.3
20260510133638 55 110 0.0 3.0 0.00 0.00 0.00 99 1016.5
20260510133133 54 110 0.0 3.0 0.00 0.00 0.00 99 1016.5
20260510132630 55 115 1.0 2.0 0.00 0.00 0.00 99 1016.6
20260510132127 55 108 0.0 3.0 0.00 0.00 0.00 99 1016.1
20260510131624 53 106 0.0 0.0 0.00 0.00 0.00 99 1016.6
20260510131122 54 110 0.0 3.0 0.00 0.00 0.00 99 1016.4
20260510130618 55 178 2.0 3.0 0.00 0.00 0.00 99 1016.3
20260510130115 54 107 0.0 2.0 0.00 0.00 0.00 99 1016.4
20260510125612 53 105 0.0 2.0 0.00 0.00 0.00 99 1016.2
20260510125108 53 120 2.0 3.0 0.00 0.00 0.00 99 1016.3
20260510124605 53 110 0.0 0.0 0.00 0.00 0.00 99 1016.3
20260510124102 54 118 0.0 3.0 0.00 0.00 0.00 99 1016.4
20260510123557 53 110 0.0 3.0 0.00 0.00 0.00 99 1016.2
20260510123054 53 109 0.0 3.0 0.00 0.00 0.00 99 1016.1
20260510122549 53 115 0.0 0.0 0.00 0.00 0.00 99 1016.1
20260510122046 53 109 0.0 0.0 0.00 0.00 0.00 99 1016.2
20260510121543 53 105 0.0 0.0 0.00 0.00 0.00 99 1016.1
20260510121040 53 93 0.0 0.0 0.00 0.00 0.00 99 1016.3
20260510120538 53 109 0.0 0.0 0.00 0.00 0.00 99 1016.3
20260510120033 53 131 2.0 2.0 0.00 0.00 0.00 99 1016.3
20260510115530 53 112 0.0 0.0 0.00 0.00 0.00 99 1016.3
20260510115027 53 116 2.0 2.0 0.00 0.00 0.00 99 1016.5
20260510114522 53 107 0.0 0.0 0.00 0.00 0.00 99 1016.2
20260510114019 53 107 0.0 0.0 0.00 0.00 0.00 99 1016.2
20260510113514 53 107 0.0 2.0 0.00 0.00 0.00 99 1016.5
20260510113012 53 107 0.0 0.0 0.00 0.00 0.00 99 1016.1
20260510112509 53 107 0.0 2.0 0.00 0.00 0.00 99 1016.2
20260510112005 53 107 0.0 2.0 0.00 0.00 0.00 99 1016.0
20260510111502 53 95 0.0 0.0 0.00 0.00 0.00 99 1016.2
20260510110957 53 95 0.0 0.0 0.00 0.00 0.00 99 1015.9
20260510110454 53 99 0.0 0.0 0.00 0.00 0.00 99 1015.9
20260510105950 53 116 1.0 2.0 0.00 0.00 0.00 99 1016.0
20260510105445 53 109 0.0 0.0 0.00 0.00 0.00 99 1016.1
20260510104940 52 109 0.0 0.0 0.00 0.00 0.00 99 1016.2
20260510104437 52 97 0.0 0.0 0.00 0.00 0.00 99 1015.8
20260510103934 52 97 0.0 3.0 0.00 0.00 0.00 99 1015.8
20260510103431 52 109 0.0 0.0 0.00 0.00 0.00 99 1015.7
20260510102926 52 110 0.0 2.0 0.00 0.00 0.00 99 1015.7
20260510102422 52 109 0.0 0.0 0.00 0.00 0.00 99 1015.6
20260510101920 52 109 0.0 0.0 0.00 0.00 0.00 99 1015.6
20260510101418 52 109 0.0 0.0 0.00 0.00 0.00 99 1015.4
20260510100915 52 109 0.0 0.0 0.00 0.00 0.00 99 1015.5
20260510100412 52 109 0.0 0.0 0.00 0.00 0.00 99 1015.1
20260510095908 52 106 0.0 0.0 0.00 0.41 0.41 99 1015.0
20260510095403 52 164 1.0 3.0 0.00 0.41 0.41 99 1014.8
20260510094902 52 112 1.0 3.0 0.00 0.41 0.41 99 1014.7
20260510094358 52 109 0.0 3.0 0.00 0.41 0.41 99 1014.6
20260510093854 52 107 0.0 0.0 0.00 0.41 0.41 99 1014.7
20260510093349 52 104 0.0 0.0 0.00 0.41 0.41 99 1014.8
20260510092846 51 104 0.0 0.0 0.00 0.41 0.41 99 1014.8
20260510092342 51 104 0.0 0.0 0.00 0.41 0.41 99 1014.8
20260510091838 51 102 0.0 0.0 0.00 0.41 0.41 99 1014.6
20260510091336 51 101 0.0 0.0 0.00 0.41 0.41 99 1014.8
20260510090832 51 101 0.0 0.0 0.00 0.41 0.41 99 1014.7
20260510090329 51 102 0.0 0.0 0.00 0.41 0.41 99 1014.8
20260510085824 51 108 0.0 0.0 0.00 0.41 0.41 99 1014.8
20260510085319 51 108 0.0 0.0 0.00 0.41 0.41 99 1015.0
20260510084815 52 108 0.0 0.0 0.00 0.41 0.41 99 1015.2
20260510084312 52 108 0.0 0.0 0.00 0.41 0.41 99 1015.4
20260510083809 52 108 0.0 0.0 0.00 0.41 0.41 99 1015.3
20260510083306 52 108 0.0 0.0 0.00 0.41 0.41 99 1015.4
20260510082801 52 108 0.0 0.0 0.00 0.41 0.41 99 1015.2
20260510082258 52 108 0.0 0.0 0.00 0.41 0.41 99 1015.3
20260510081756 52 108 0.0 0.0 0.00 0.41 0.41 99 1015.2
20260510081253 52 108 0.0 0.0 0.00 0.41 0.41 99 1015.3
20260510080748 52 109 0.0 0.0 0.00 0.41 0.41 99 1015.2
20260510080244 52 109 0.0 0.0 0.00 0.41 0.41 99 1015.2
20260510075741 52 106 0.0 0.0 0.00 0.41 0.41 99 1015.3
20260510075239 52 109 0.0 0.0 0.00 0.41 0.41 99 1015.3
20260510074736 52 109 0.0 0.0 0.00 0.41 0.41 99 1015.2
20260510074232 52 111 0.0 0.0 0.00 0.41 0.41 99 1015.2
20260510073728 52 109 0.0 0.0 0.00 0.41 0.41 99 1015.1
20260510073224 52 109 0.0 0.0 0.00 0.41 0.41 99 1014.9
20260510072720 52 109 0.0 0.0 0.00 0.41 0.41 99 1015.1
20260510072217 51 105 0.0 0.0 0.00 0.41 0.41 99 1014.9
20260510071714 51 105 0.0 0.0 0.00 0.41 0.41 99 1014.8
20260510071210 51 105 0.0 0.0 0.00 0.41 0.41 99 1014.8
20260510070708 51 106 0.0 0.0 0.00 0.41 0.41 99 1014.9
20260510070205 51 71 0.0 0.0 0.00 0.41 0.41 99 1014.7
20260510065700 51 71 0.0 0.0 0.00 0.41 0.41 99 1014.7
20260510065157 51 71 0.0 0.0 0.00 0.41 0.41 99 1014.8
20260510064653 51 71 0.0 0.0 0.00 0.41 0.41 99 1014.7
20260510064151 51 71 0.0 0.0 0.00 0.41 0.41 99 1014.9
20260510063648 51 71 0.0 0.0 0.00 0.41 0.41 99 1015.0
20260510063144 51 71 0.0 0.0 0.00 0.41 0.41 99 1015.0
20260510062640 51 71 0.0 0.0 0.00 0.41 0.41 99 1015.0
20260510062136 51 71 0.0 0.0 0.00 0.41 0.41 99 1014.8
20260510061632 51 71 0.0 0.0 0.00 0.41 0.41 99 1014.9
20260510061130 51 71 0.0 0.0 0.00 0.41 0.41 99 1014.9
20260510060625 51 71 0.0 0.0 0.00 0.41 0.41 99 1014.9
20260510060122 51 71 0.0 0.0 0.00 0.41 0.41 99 1014.8
20260510055618 51 90 0.0 0.0 0.00 0.41 0.41 99 1014.6
20260510055117 51 90 0.0 0.0 0.00 0.41 0.41 99 1014.7
20260510054612 51 96 0.0 0.0 0.00 0.41 0.41 99 1014.9
20260510054107 51 96 0.0 0.0 0.00 0.41 0.41 99 1014.9
20260510053606 51 96 0.0 0.0 0.00 0.41 0.41 99 1015.1
20260510053104 51 96 0.0 0.0 0.00 0.41 0.41 99 1015.2
20260510052600 50 96 0.0 0.0 0.00 0.41 0.41 99 1015.0
20260510052056 51 96 0.0 0.0 0.00 0.41 0.41 99 1014.8
20260510051551 50 96 0.0 0.0 0.00 0.41 0.41 99 1014.7
20260510051048 50 96 0.0 0.0 0.00 0.41 0.41 99 1014.8
20260510050540 50 96 0.0 0.0 0.00 0.41 0.41 99 1014.9
20260510050037 50 96 0.0 0.0 0.00 0.41 0.41 99 1014.8
20260510045534 50 96 0.0 0.0 0.00 0.41 0.41 99 1014.7
20260510045030 51 96 0.0 0.0 0.00 0.41 0.41 99 1014.8
20260510044527 51 96 0.0 0.0 0.00 0.41 0.41 99 1014.7
20260510044025 51 96 0.0 0.0 0.00 0.41 0.41 99 1014.7
20260510043520 51 96 0.0 0.0 0.00 0.41 0.41 99 1014.9
20260510043015 51 97 0.0 0.0 0.00 0.41 0.41 99 1015.0
20260510042510 51 95 0.0 0.0 0.00 0.41 0.41 99 1015.0
20260510042005 51 98 0.0 0.0 0.00 0.41 0.41 99 1014.9
20260510041503 51 98 0.0 0.0 0.00 0.41 0.41 99 1015.0
20260510041000 51 98 0.0 0.0 0.00 0.41 0.41 99 1015.0
20260510040456 51 100 2.0 7.0 0.00 0.41 0.41 99 1015.0
20260510035952 51 95 3.0 3.0 0.00 0.41 0.41 99 1015.0
20260510035449 51 97 0.0 0.0 0.00 0.41 0.41 99 1015.3
20260510034948 51 98 0.0 0.0 0.00 0.41 0.41 99 1015.5
20260510034447 51 98 0.0 0.0 0.00 0.41 0.41 99 1015.2
20260510033943 51 97 1.0 2.0 0.00 0.41 0.41 99 1015.0
20260510033439 51 98 0.0 0.0 0.00 0.41 0.41 99 1015.3
20260510032937 51 98 0.0 0.0 0.00 0.41 0.41 99 1015.3
20260510032433 51 97 0.0 0.0 0.00 0.41 0.41 99 1014.9
20260510031928 51 98 0.0 0.0 0.00 0.41 0.41 99 1015.2
20260510031424 51 97 0.0 0.0 0.00 0.41 0.41 99 1015.0
20260510030920 51 97 0.0 0.0 0.00 0.41 0.41 99 1014.9
20260510030415 51 97 0.0 0.0 0.00 0.41 0.41 99 1015.0
20260510025913 51 98 0.0 0.0 0.00 0.41 0.41 99 1015.0
20260510025411 51 98 0.0 0.0 0.00 0.41 0.41 99 1015.1
20260510024908 51 97 0.0 0.0 0.00 0.41 0.41 99 1015.0
20260510024404 51 97 0.0 0.0 0.00 0.41 0.41 99 1014.9
20260510023900 51 97 0.0 0.0 0.00 0.41 0.41 99 1014.8
20260510023356 51 97 0.0 0.0 0.00 0.41 0.41 99 1015.0
20260510022854 51 96 0.0 0.0 0.00 0.41 0.41 99 1014.7
20260510022353 51 96 0.0 0.0 0.00 0.41 0.41 99 1015.0
20260510021852 51 97 0.0 2.0 0.00 0.41 0.41 99 1014.9
20260510021350 51 96 2.0 2.0 0.00 0.41 0.41 99 1014.9
20260510020846 51 99 2.0 3.0 0.00 0.41 0.41 99 1015.3
20260510020346 51 71 0.0 0.0 0.00 0.41 0.41 99 1015.5
20260510015842 50 72 0.0 0.0 0.00 0.41 0.41 99 1015.8
20260510015338 50 72 0.0 0.0 0.00 0.41 0.41 99 1015.8
20260510014833 51 72 0.0 2.0 0.00 0.41 0.41 99 1015.7
20260510014331 51 42 2.0 3.0 0.00 0.41 0.41 99 1015.7
20260510013827 51 60 0.0 0.0 0.00 0.41 0.41 99 1015.6
20260510013323 51 59 0.0 0.0 0.00 0.41 0.41 99 1015.8
20260510012818 51 59 0.0 2.0 0.00 0.41 0.41 99 1015.7
20260510012318 50 67 2.0 2.0 0.00 0.41 0.41 99 1015.6
20260510011813 50 102 0.0 0.0 0.00 0.41 0.41 99 1015.4
20260510011308 50 102 0.0 0.0 0.00 0.41 0.41 99 1015.3
20260510010805 50 101 0.0 0.0 0.00 0.41 0.41 99 1015.2
20260510010303 50 102 0.0 0.0 0.00 0.41 0.41 99 1015.1
20260510005759 50 102 0.0 0.0 0.00 0.41 0.41 99 1014.9
20260510005255 50 102 0.0 0.0 0.00 0.41 0.41 99 1014.6
20260510004753 50 108 0.0 0.0 0.00 0.41 0.41 99 1014.7
20260510004251 50 112 1.0 2.0 0.00 0.41 0.41 99 1014.8
20260510003748 50 107 0.0 0.0 0.00 0.41 0.41 99 1014.8
20260510003244 50 107 0.0 2.0 0.00 0.41 0.41 99 1014.9
20260510002743 50 72 0.0 2.0 0.00 0.41 0.41 99 1014.8
20260510002241 50 72 0.0 2.0 0.00 0.41 0.41 99 1014.7
20260510001738 50 71 0.0 2.0 0.00 0.41 0.41 99 1014.7
20260510001236 50 71 0.0 2.0 0.00 0.41 0.41 99 1014.9
20260510000731 50 88 1.0 3.0 0.00 0.41 0.41 99 1014.8
20260510000229 50 104 0.0 2.0 0.00 0.41 0.41 99 1014.9
20260509235725 50 97 0.0 2.0 0.00 0.41 0.41 99 1014.8
20260509235222 50 74 1.0 5.0 0.00 0.41 0.41 99 1014.8
20260509234718 50 87 0.0 2.0 0.00 0.41 0.41 99 1015.2
20260509234215 50 87 0.0 0.0 0.00 0.41 0.41 99 1014.9
20260509233714 50 87 0.0 0.0 0.00 0.41 0.41 99 1015.0
20260509233211 50 86 0.0 2.0 0.00 0.41 0.41 99 1015.0
20260509232707 50 83 0.0 3.0 0.00 0.41 0.41 99 1015.1
20260509232204 50 74 0.0 0.0 0.00 0.41 0.41 99 1014.7
20260509231700 50 74 0.0 0.0 0.00 0.41 0.41 99 1014.8
20260509231158 50 74 0.0 0.0 0.00 0.41 0.41 99 1014.6
20260509230655 50 58 0.0 3.0 0.00 0.41 0.41 99 1014.7
20260509230151 50 59 2.0 3.0 0.00 0.41 0.41 99 1014.7
20260509225647 50 81 0.0 0.0 0.00 0.41 0.41 99 1015.0
20260509225143 50 81 0.0 0.0 0.00 0.41 0.41 99 1014.9
20260509224638 50 81 0.0 0.0 0.00 0.41 0.41 99 1015.0
20260509224136 50 81 0.0 0.0 0.00 0.41 0.41 99 1014.7
20260509223632 50 81 0.0 0.0 0.00 0.41 0.41 99 1014.7
20260509223130 50 81 0.0 0.0 0.00 0.41 0.41 99 1014.8
20260509222626 49 81 0.0 0.0 0.00 0.41 0.41 99 1014.7
20260509222116 49 81 0.0 0.0 0.00 0.41 0.41 99 1014.8
20260509221612 50 81 0.0 0.0 0.00 0.41 0.41 99 1014.9
20260509221109 49 76 0.0 0.0 0.00 0.41 0.41 99 1014.7
20260509220604 49 76 0.0 0.0 0.00 0.41 0.41 99 1015.0
20260509215556 49 84 0.0 3.0 0.00 0.41 0.41 99 1014.9
20260509215054 49 18 3.0 3.0 0.07 0.41 0.41 99 1014.7
20260509214551 49 67 3.0 5.0 0.07 0.41 0.41 99 1014.6
20260509214048 49 61 2.0 3.0 0.00 0.40 0.40 99 1014.9
20260509213544 49 104 0.0 0.0 0.05 0.40 0.40 99 1014.8
20260509213041 49 104 0.0 0.0 0.05 0.40 0.40 99 1014.8
20260509212538 49 104 0.0 2.0 0.00 0.39 0.39 99 1014.8
20260509212035 49 88 0.0 0.0 0.00 0.39 0.39 99 1015.0
20260509211530 49 99 0.0 0.0 0.05 0.39 0.39 99 1015.3
20260509211027 49 77 0.0 0.0 0.07 0.38 0.38 99 1015.1
20260509210524 49 70 0.0 2.0 0.07 0.38 0.38 99 1015.2
20260509210020 49 106 0.0 0.0 0.05 0.37 0.37 99 1015.2
20260509205515 49 106 0.0 0.0 0.05 0.37 0.37 99 1015.4
20260509205010 49 107 0.0 0.0 0.07 0.36 0.36 99 1015.3
20260509204507 49 106 0.0 2.0 0.00 0.35 0.35 99 1015.5
20260509204003 49 103 0.0 0.0 0.05 0.35 0.35 99 1015.7
20260509203459 49 103 0.0 0.0 0.05 0.35 0.35 99 1015.7
20260509202957 49 103 0.0 0.0 0.00 0.34 0.34 99 1015.7
20260509202453 49 103 0.0 0.0 0.07 0.34 0.34 99 1015.7
20260509201948 49 103 0.0 0.0 0.12 0.34 0.34 99 1015.8
20260509201443 49 103 0.0 2.0 0.05 0.33 0.33 99 1015.9
20260509200940 49 93 0.0 0.0 0.05 0.32 0.32 99 1016.0
20260509200441 48 93 0.0 0.0 0.07 0.32 0.32 99 1016.1
20260509195937 48 93 0.0 0.0 0.07 0.32 0.32 99 1016.0
20260509195433 48 70 0.0 0.0 0.05 0.30 0.30 99 1016.1
20260509194933 48 71 0.0 0.0 0.05 0.30 0.30 99 1016.0
20260509194428 48 71 0.0 0.0 0.07 0.29 0.29 99 1015.9
20260509193926 48 69 2.0 3.0 0.07 0.29 0.29 99 1015.9
20260509193425 48 74 0.0 3.0 0.00 0.28 0.28 99 1016.1
20260509192922 48 77 0.0 3.0 0.00 0.28 0.28 99 1016.1
20260509192418 48 79 0.0 3.0 0.05 0.28 0.28 99 1016.0
20260509191913 48 95 0.0 3.0 0.05 0.28 0.28 99 1016.2
20260509191409 48 74 3.0 5.0 0.00 0.28 0.28 99 1016.2
20260509190905 48 79 0.0 5.0 0.00 0.28 0.28 99 1016.2
20260509190402 48 336 6.0 7.0 0.00 0.28 0.28 99 1016.1
20260509185900 48 4 3.0 7.0 0.00 0.28 0.28 99 1016.0
20260509185356 48 33 3.0 9.0 0.00 0.28 0.28 99 1016.2
20260509184853 48 9 2.0 5.0 0.00 0.28 0.28 99 1016.0
20260509184350 48 0 6.0 7.0 0.00 0.28 0.28 99 1015.9
20260509183847 48 53 0.0 5.0 0.00 0.28 0.28 99 1016.1
20260509183342 48 10 4.0 5.0 0.05 0.28 0.28 99 1016.1
20260509182838 48 71 3.0 7.0 0.05 0.28 0.28 99 1016.1